DECAYED

METEOR 2-7 DEB, 28599 (Decayed)

Orbit data source: Space-Track

METEOR 2-7 DEB, 28599 was space debris in LEO originally from a launch on Thu, 14 May 1981 UTC launched from the Plesetsk Missile And Space Complex (PKMTR). Debris objects in space refer to the collection of defunct objects orbiting the Earth. Examples of debris include non-operational satellites, rocket bodies, and fragments generated from explosions, collisions, or faulty payload assembly.

Not visible in the next 10 days
Identifier
28599, 1981-043H
Orbit
Decayed
Last TLE update
10 months ago
Origin
Manufacturer
Unknown
Mission
Decayed spacecraft
Bus & Motor
Unknown
Mass
Unknown
Launch date (UTC)
1981-05-14 (44 years ago)
Launch vehicle
Unknown
Launch site
Plesetsk Missile And Space Complex (PKMTR)
Object type
Payload
Rocket body
Debris
Shape & HBR
Unknown
Radar Cross Section
Small (<0.1 m²)

Expand to show TLE details & history

TLE from 10 months ago
0 METEOR 2-7 DEB
1 28599U 81043H   24251.55762310  .00808792  00000-0  22954-1 0  9999
2 28599  81.1962 341.9106 0031102 268.6768  91.0907 15.33400417156912
Epoch: 2024-09-07T13:22Z
TLE epoch observation values (Epoch: 2024-09-07T13:22:58.635Z)
Latitude
-0.00004°
Longitude
154.05219°
Altitude
469.212 km
Speed
7.631 km/s
True Right ascension
22h 47m 38s
True Declination
0° 00' 00"
Sunlit
Object was in full shadow at epoch
Visualization orbit readout
Visualization observer readout
Orbital elements
Apogee altitude
483.966 km
Perigee altitude
441.413 km
Semi-major axis
6,840.826 km
Eccentricity
0.00311
Inclination
81.1962°
RAAN
341.9106°
Arg. of periapsis
268.6768°
True anomaly
Unknown
Mean anomaly
91.0907°
Eccentric anomaly
Unknown
Mean motion
3.83602 °/min
Orbital period
93.85 mins
BSTAR
0.022954
Loading maneuver chart data...
Loading SW <> Apogee altitude chart data...
Loading historical data...
Loading historical data...
Loading historical data...
Loading historical data...
Loading historical data...
Loading historical data...
Loading historical data...

METEOR 2-7 DEB Visibility

Observer location: undefined°, undefined°

This satellite is decayed
Span
Click to sort rows by Start time (UTC) header in descending order
Start Az.
Max El. time (UTC)
Max El. Az.
Max El.
End time (UTC)
End Az.
|